Weather History for Volk, WI

Change the Weather History Date:

Sunday, November 20, 2011

  Actual Average Record
Temperature  
Mean Temperature 30 °F -  
Max Temperature 33 °F 37 °F 64 °F (2003)
Min Temperature 28 °F 25 °F -1 °F (2014)
Degree Days  
Heating Degree Days 34    
Moisture  
Dew Point 31 °F    
Average Humidity 96    
Maximum Humidity 100    
Minimum Humidity 75    
Precipitation  
Precipitation 0.00 in - - ()
Sea Level Pressure  
Sea Level Pressure 30.21 in    
Wind  
Wind Speed 9 mph (NW)    
Max Wind Speed 15 mph    
Max Gust Speed 21 mph    
Visibility 10 miles    
Events      
Averages and records for this station are not official NWS values.
T = Trace of Precipitation, MM = Missing Value Source: NWS Daily Summary

Daily Weather History Graph

Daily Weather History Graph

Search for Another Location

Airport:

Trip Planner

Search our weather history database for the weather conditions in past years. The results will help you decide how hot, cold, wet, or windy it might be!

Date:

Astronomy

Nov. 20, 2011 Rise Set
Actual Time 7:01 AM CST 4:30 PM CST
Civil Twilight 6:30 AM CST 5:02 PM CST
Nautical Twilight 5:55 AM CST 5:37 PM CST
Astronomical Twilight 5:20 AM CST 6:11 PM CST
Moon 1:20 AM CST (11/20) 1:28 PM CST (11/20)
Length of Visible Light 10h 31m
Length of Day
9h 28m
Waning Crescent, 27% of the Moon is Illuminated
Nov 20
Waning Crescent
Nov 25
New
Dec 2
First Quarter
Dec 10
Full
Dec 17
Last Quarter

Hourly Weather History & Observations

Time (CST) Temp. Windchill Dew Point Humidity Pressure Visibility Wind Dir Wind Speed Gust Speed Precip Events Conditions
12:10 AM 33.8 °F 23.9 °F 33.8 °F 100% 30.01 in 10.0 mi NNW 15.0 mph 20.7 mph N/A   Overcast
12:12 AM 33.8 °F 23.9 °F 33.8 °F 100% 30.01 in 10.0 mi NNW 15.0 mph 20.7 mph N/A   Overcast
12:13 AM 33.8 °F 24.3 °F 33.8 °F 100% 30.01 in 10.0 mi NW 13.8 mph 20.7 mph N/A   Overcast
12:47 AM 33.8 °F 25.8 °F 33.8 °F 100% 30.05 in 10.0 mi NW 10.4 mph - N/A   Overcast
12:55 AM 33.1 °F 25.5 °F 33.1 °F 100% 30.06 in 10.0 mi NW 9.2 mph - N/A   Overcast
1:27 AM 32.0 °F 24.2 °F 32.0 °F 100% 30.07 in 10.0 mi NW 9.2 mph - N/A   Overcast
1:37 AM 32.0 °F 23.6 °F 32.0 °F 100% 30.08 in 10.0 mi NW 10.4 mph - N/A   Overcast
1:48 AM 32.0 °F 24.8 °F 32.0 °F 100% 30.09 in 10.0 mi NW 8.1 mph - N/A   Overcast
1:50 AM 32.0 °F 25.6 °F 32.0 °F 100% 30.09 in 10.0 mi NW 6.9 mph - N/A   Overcast
1:55 AM 32.5 °F 25.5 °F 32.4 °F 99% 30.09 in 10.0 mi NNW 8.1 mph - N/A   Overcast
1:59 AM 32.0 °F 23.6 °F 32.0 °F 100% 30.09 in 10.0 mi NNW 10.4 mph - N/A   Overcast
2:01 AM 32.0 °F 24.2 °F 32.0 °F 100% 30.09 in 10.0 mi NNW 9.2 mph - N/A   Overcast
2:39 AM 32.0 °F 24.8 °F 32.0 °F 100% 30.13 in 10.0 mi WNW 8.1 mph - N/A   Overcast
2:49 AM 32.0 °F 24.2 °F 32.0 °F 100% 30.13 in 10.0 mi NW 9.2 mph - N/A   Overcast
2:55 AM 32.0 °F 24.8 °F 31.8 °F 99% 30.13 in 10.0 mi NW 8.1 mph - N/A   Overcast
3:07 AM 32.0 °F 24.2 °F 32.0 °F 100% 30.14 in 10.0 mi NW 9.2 mph - N/A   Overcast
3:55 AM 31.1 °F 24.5 °F 30.9 °F 99% 30.15 in 10.0 mi NW 6.9 mph - N/A   Overcast
4:04 AM 32.0 °F 24.8 °F 30.2 °F 93% 30.16 in 10.0 mi NW 8.1 mph - N/A   Overcast
4:07 AM 30.2 °F 22.6 °F 30.2 °F 100% 30.16 in 10.0 mi NW 8.1 mph - N/A   Overcast
4:09 AM 30.2 °F 21.9 °F 30.2 °F 100% 30.16 in 10.0 mi NW 9.2 mph - N/A   Overcast
4:55 AM 30.4 °F 23.6 °F 30.2 °F 99% 30.17 in 10.0 mi WNW 6.9 mph - N/A   Overcast
5:14 AM 30.2 °F 21.3 °F 30.2 °F 100% 30.19 in 10.0 mi NW 10.4 mph - N/A   Overcast
5:55 AM 30.0 °F 22.4 °F 29.8 °F 99% 30.22 in 10.0 mi WNW 8.1 mph - N/A   Overcast
6:55 AM 29.7 °F 22.0 °F 29.5 °F 99% 30.26 in 10.0 mi WNW 8.1 mph - N/A   Overcast
7:55 AM 29.8 °F 22.2 °F 29.5 °F 99% 30.28 in 10.0 mi NW 8.1 mph - N/A   Overcast
8:55 AM 30.2 °F 22.6 °F 30.2 °F 100% 30.32 in 10.0 mi WNW 8.1 mph - N/A   Overcast
9:30 AM 30.2 °F 25.4 °F 30.2 °F 100% 30.29 in 10.0 mi NNW 4.6 mph - N/A   Mostly Cloudy
9:55 AM 32.0 °F 28.7 °F 32.0 °F 100% 30.33 in 10.0 mi North 3.5 mph - N/A   Mostly Cloudy
10:55 AM 32.0 °F 28.7 °F 30.2 °F 93% 30.34 in 10.0 mi NNW 3.5 mph - N/A   Overcast
11:55 AM 33.8 °F 28.6 °F 30.2 °F 87% 30.33 in 10.0 mi NNW 5.8 mph - N/A   Mostly Cloudy
12:55 PM 33.8 °F 28.6 °F 28.4 °F 81% 30.33 in 10.0 mi NNW 5.8 mph - N/A   Mostly Cloudy
1:55 PM 33.8 °F 27.7 °F 28.4 °F 81% 30.34 in 10.0 mi NNW 6.9 mph - N/A   Mostly Cloudy
2:55 PM 33.8 °F 29.6 °F 26.6 °F 75% 30.33 in 10.0 mi North 4.6 mph - N/A   Overcast
3:55 PM 32.0 °F 28.7 °F 26.6 °F 80% 30.35 in 10.0 mi NNW 3.5 mph - N/A   Mostly Cloudy
4:55 PM 31.6 °F - 25.5 °F 78% 30.36 in 10.0 mi Calm Calm - N/A   Overcast
5:55 PM 30.7 °F 26.0 °F 29.7 °F 96% 30.37 in 10.0 mi NNW 4.6 mph - N/A   Overcast
6:55 PM 29.7 °F - 29.3 °F 99% 30.37 in 10.0 mi Calm Calm - N/A   Overcast
7:55 PM 28.9 °F - 28.8 °F 99% 30.36 in 10.0 mi Calm Calm - N/A   Overcast
8:55 PM 29.5 °F - 28.8 °F 97% 30.35 in 10.0 mi Calm Calm - N/A   Overcast
9:55 PM 29.1 °F - 28.9 °F 99% 30.36 in 10.0 mi Calm Calm - N/A   Overcast
10:55 PM 29.7 °F - 29.5 °F 99% 30.35 in 10.0 mi Calm Calm - N/A   Overcast
11:55 PM 30.4 °F - 30.0 °F 99% 30.35 in 10.0 mi Calm Calm - N/A   Overcast